La Paz, Mexico

8:38 PM MDT on June 22, 2017 (GMT -0600)
Gen Manuel Marquez De Leon

Weather History for MMLP - September, 2012

Change the Weather History Date:

Wednesday, September 26, 2012

  Actual Average Record
Temperature  
Mean Temperature 84 °F -  
Max Temperature 94 °F 91 °F 100 °F (1999)
Min Temperature 73 °F 68 °F 68 °F (2003)
Cooling Degree Days 18    
Growing Degree Days 34 (Base 50)    
Moisture  
Dew Point 72 °F    
Average Humidity 79    
Maximum Humidity 89    
Minimum Humidity 49    
Precipitation  
Precipitation 0.71 in - - ()
Sea Level Pressure  
Sea Level Pressure 29.83 in    
Wind  
Wind Speed 3 mph ()    
Max Wind Speed 13 mph    
Max Gust Speed -    
Visibility 7.6 miles    
Events Rain , Thunderstorm    
Averages and records for this station are not official NWS values.
T = Trace of Precipitation, MM = Missing Value Source: Averaged Metar Reports

Daily Weather History Graph

Daily Weather History Graph

Search for Another Location

Airport or City:

Trip Planner

Search our weather history database for the weather conditions in past years. The results will help you decide how hot, cold, wet, or windy it might be!

Date:

Astronomy

Sep. 26, 2012 Rise Set
Actual Time 7:11 AM MDT 7:13 PM MDT
Civil Twilight 6:49 AM MDT 7:35 PM MDT
Nautical Twilight 6:22 AM MDT 8:01 PM MDT
Astronomical Twilight 5:56 AM MDT 8:28 PM MDT
Moon 4:59 PM MDT (9/26) 4:00 AM MDT (9/26)
Length of Visible Light 12h 46m
Length of Day
12h 01m
Waxing Gibbous, 88% of the Moon is Illuminated
Sep 26
Waxing Gibbous
Sep 29
Full
Oct 8
Last Quarter
Oct 15
New
Oct 21
First Quarter

Hourly Weather History & Observations

Time (MDT) Temp. Heat Index Dew Point Humidity Pressure Visibility Wind Dir Wind Speed Gust Speed Precip Events Conditions
2:50 AM 78 °F - 74 °F 86% 29.82 in 2 mi Calm Calm - -   Mostly Cloudy
5:50 AM 78 °F - 73 °F 81% 29.78 in 2 mi Calm Calm - -   Mostly Cloudy
6:08 AM 75.2 °F - 71.6 °F 89% 29.84 in 8.0 mi SSE 4.6 mph - N/A   Overcast
6:40 AM 75.2 °F - 71.6 °F 89% 29.80 in 8.0 mi SSE 4.6 mph - N/A   Overcast
7:43 AM 75.2 °F - 71.6 °F 89% 29.82 in 10.0 mi Calm Calm - N/A   Mostly Cloudy
8:43 AM 77.0 °F - 73.4 °F 89% 29.92 in 10.0 mi Calm Calm - N/A   Mostly Cloudy
8:50 AM 80 °F - 74 °F 76% 29.82 in 12 mi Calm Calm - -   Mostly Cloudy
9:41 AM 80.6 °F 85.4 °F 73.4 °F 79% 29.85 in 10.0 mi Calm Calm - N/A   Mostly Cloudy
10:47 AM 84.2 °F 89.6 °F 71.6 °F 66% 29.85 in 10.0 mi SSW 4.6 mph - N/A   Mostly Cloudy
11:40 AM 87.8 °F 95.6 °F 73.4 °F 62% 29.91 in 10.0 mi Calm Calm - N/A   Mostly Cloudy
11:50 AM 90 °F - 74 °F 51% 29.83 in 16 mi South 2.2 mph - -   Partly Cloudy
12:43 PM 89.6 °F 96.2 °F 71.6 °F 55% 29.82 in 10.0 mi Calm Calm - N/A   Mostly Cloudy
1:41 PM 91.4 °F 96.8 °F 69.8 °F 49% 29.79 in 10.0 mi North 9.2 mph - N/A   Mostly Cloudy
2:05 PM 91.4 °F 96.8 °F 69.8 °F 49% 29.77 in 10.0 mi North 12.7 mph - N/A Thunderstorm Thunderstorm
2:30 PM 87.8 °F 93.8 °F 71.6 °F 58% 29.79 in 3.0 mi South 12.7 mph - N/A Rain , Thunderstorm Thunderstorms and Rain
2:47 PM 75.2 °F - 69.8 °F 83% 29.86 in 1.5 mi SW 11.5 mph - N/A Rain , Thunderstorm Thunderstorms and Rain
2:50 PM 79 °F - 74 °F 80% 29.81 in 3 mi NW 6.7 mph - - Rain Heavy Rain
3:45 PM 73.4 °F - 69.8 °F 88% 29.84 in 3.0 mi SSW 5.8 mph - N/A Rain Light Rain
4:08 PM 73.4 °F - 69.8 °F 88% 29.84 in 1.5 mi SSE 10.4 mph - N/A Rain Rain
4:49 PM 73.4 °F - 69.8 °F 88% 29.82 in 5.0 mi SSW 4.6 mph - N/A   Overcast
5:45 PM 76 °F - 73 °F 88% 29.80 in 16 mi SE 2.2 mph - -   Partly Cloudy
5:48 PM 75.2 °F - 71.6 °F 89% 29.87 in 8.0 mi Calm Calm - N/A   Overcast
6:42 PM 75.2 °F - 71.6 °F 89% 29.82 in 8.0 mi South 4.6 mph - N/A   Overcast
7:43 PM 75.2 °F - 71.6 °F 89% 29.82 in 10.0 mi ESE 3.5 mph - N/A   Overcast
8:40 PM 75.2 °F - 71.6 °F 89% 29.89 in 10.0 mi South 3.5 mph - N/A   Overcast
8:50 PM 78 °F - 74 °F 84% 29.80 in 2 mi Calm Calm - -   Partly Cloudy
9:59 PM 75.2 °F - 71.6 °F 89% 29.84 in 10.0 mi SW 3.5 mph - N/A   Overcast
10:40 PM 75.2 °F - 71.6 °F 89% 29.86 in 10.0 mi Calm Calm - N/A   Overcast
11:50 PM 77 °F - 74 °F 87% 29.87 in 2 mi Calm Calm - -   Mostly Cloudy